FW7875 Weather Reports


Display with metric or nautical units.
time (UTC)temp
F
wind
direction
speed
MPH
gust
MPH
rain 1hr
in
rain 24hr
in
rain mn
in
humidity
%
barometer
mb
20260502181014 59 267 5.0 11.0 0.00 0.00 0.00 28 1023.4
20260502180514 58 91 2.0 9.0 0.00 0.00 0.00 29 1023.5
20260502170514 55 210 4.0 10.0 0.00 0.00 0.00 33 1023.8
20260502164014 54 280 5.0 9.0 0.00 0.00 0.00 35 1023.8
20260502163517 54 293 4.0 7.0 0.00 0.00 0.00 37 1023.7
20260502163035 54 274 2.0 12.0 0.00 0.00 0.00 37 1023.6
20260502162514 54 269 7.0 12.0 0.00 0.00 0.00 36 1023.7
20260502162014 53 238 4.0 11.0 0.00 0.00 0.00 36 1023.8
20260502161530 53 293 2.0 10.0 0.00 0.00 0.00 38 1023.7
20260502161013 53 330 5.0 10.0 0.00 0.00 0.00 37 1023.8
20260502160514 52 269 3.0 9.0 0.00 0.00 0.00 37 1023.8
20260502152016 52 185 1.0 5.0 0.00 0.00 0.00 39 1023.9
20260502151532 51 273 1.0 5.0 0.00 0.00 0.00 38 1024.0
20260502151016 52 328 2.0 4.0 0.00 0.00 0.00 38 1023.8
20260502150515 52 112 0.0 3.0 0.00 0.00 0.00 38 1023.8
20260502130515 34 89 6.0 9.0 0.00 0.00 0.00 68 1023.3
20260502123516 31 96 6.0 8.0 0.00 0.00 0.00 73 1022.7
20260502123040 30 94 6.0 8.0 0.00 0.00 0.00 75 1022.8
20260502122513 30 89 5.0 8.0 0.00 0.00 0.00 74 1022.7
20260502122014 31 91 7.0 8.0 0.00 0.00 0.00 74 1022.7
20260502121533 30 95 6.0 9.0 0.00 0.00 0.00 74 1022.7
20260502121014 31 106 6.0 9.0 0.00 0.00 0.00 74 1022.5
20260502120514 30 106 6.0 9.0 0.00 0.00 0.00 75 1022.5
20260502115513 31 100 4.0 6.0 0.00 0.00 0.00 74 1022.3
20260502115015 31 96 4.0 6.0 0.00 0.00 0.00 74 1022.4
20260502114549 30 108 3.0 6.0 0.00 0.00 0.00 76 1022.4
20260502114014 30 94 3.0 6.0 0.00 0.00 0.00 74 1022.3
20260502113512 30 122 4.0 6.0 0.00 0.00 0.00 75 1022.3
20260502113034 31 105 4.0 6.0 0.00 0.00 0.00 74 1022.3
20260502112513 30 115 3.0 5.0 0.00 0.00 0.00 73 1022.3
20260502112013 30 107 4.0 7.0 0.00 0.00 0.00 73 1022.2
20260502111533 30 106 4.0 7.0 0.00 0.00 0.00 75 1022.2
20260502111013 30 90 5.0 7.0 0.00 0.00 0.00 75 1022.1
20260502110516 30 103 5.0 6.0 0.00 0.00 0.00 76 1022.1
20260502110034 30 101 4.0 7.0 0.00 0.00 0.00 77 1022.1
20260502105516 30 94 4.0 7.0 0.00 0.00 0.00 74 1022.1
20260502105014 31 108 5.0 7.0 0.00 0.00 0.00 74 1022.1
20260502104531 31 111 5.0 6.0 0.00 0.00 0.00 76 1022.0
20260502104014 30 124 3.0 4.0 0.00 0.00 0.00 76 1022.1
20260502103516 31 113 3.0 5.0 0.00 0.00 0.00 75 1022.1
20260502103030 31 108 3.0 5.0 0.00 0.00 0.00 76 1022.1
20260502102514 30 110 4.0 5.0 0.00 0.00 0.00 76 1022.1
20260502102017 31 122 3.0 7.0 0.00 0.00 0.00 75 1022.0
20260502101536 31 110 4.0 7.0 0.00 0.00 0.00 76 1021.9
20260502101013 31 114 5.0 7.0 0.00 0.00 0.00 76 1021.8
20260502100513 30 120 4.0 6.0 0.00 0.00 0.00 77 1021.8
20260502091533 32 132 3.0 6.0 0.00 0.00 0.00 74 1021.5
20260502091014 33 123 3.0 6.0 0.00 0.00 0.00 74 1021.5
20260502090513 33 110 4.0 7.0 0.00 0.00 0.00 75 1021.5
20260502071532 38 68 6.0 8.0 0.00 0.00 0.00 66 1021.1
20260502071013 38 67 5.0 7.0 0.00 0.00 0.00 66 1021.2
20260502070514 38 63 4.0 7.0 0.00 0.00 0.00 66 1021.1
20260502070034 38 72 4.0 8.0 0.00 0.00 0.00 66 1021.1
20260502065514 38 75 6.0 8.0 0.00 0.00 0.00 67 1021.0
20260502065014 38 89 5.0 7.0 0.00 0.00 0.00 67 1020.9
20260502064541 37 87 5.0 7.0 0.00 0.00 0.00 68 1020.9
20260502064012 37 92 4.0 7.0 0.00 0.00 0.00 68 1021.0
20260502063513 37 102 4.0 7.0 0.00 0.00 0.00 68 1021.0
20260502063031 38 107 5.0 9.0 0.00 0.00 0.00 67 1020.9
20260502062512 38 86 5.0 9.0 0.00 0.00 0.00 66 1020.7
20260502062013 38 84 6.0 8.0 0.00 0.00 0.00 67 1020.6
20260502061531 37 101 5.0 7.0 0.00 0.00 0.00 68 1020.6
20260502061014 38 87 3.0 7.0 0.00 0.00 0.00 66 1020.9
20260502060512 38 89 5.0 7.0 0.00 0.00 0.00 66 1020.8
20260502060041 37 100 5.0 7.0 0.00 0.00 0.00 67 1020.7
20260502055514 37 91 5.0 6.0 0.00 0.00 0.00 66 1020.7
20260502055014 37 70 4.0 6.0 0.00 0.00 0.00 67 1020.5
20260502054529 38 75 4.0 9.0 0.00 0.00 0.00 66 1020.4
20260502054014 38 74 5.0 9.0 0.00 0.00 0.00 67 1020.3
20260502053516 38 90 7.0 9.0 0.00 0.00 0.00 66 1020.1
20260502053034 37 84 6.0 8.0 0.00 0.00 0.00 67 1020.2
20260502052513 37 89 6.0 7.0 0.00 0.00 0.00 67 1020.1
20260502052014 37 89 4.0 10.0 0.00 0.00 0.00 67 1020.2
20260502051535 38 113 5.0 10.0 0.00 0.00 0.00 65 1020.0
20260502051013 39 86 7.0 9.0 0.00 0.00 0.00 64 1020.0
20260502050513 39 90 7.0 9.0 0.00 0.00 0.00 63 1019.9
20260502050033 39 93 7.0 9.0 0.00 0.00 0.00 63 1020.0
20260502045513 39 105 7.0 10.0 0.00 0.00 0.00 63 1020.0
20260502045013 40 114 7.0 10.0 0.00 0.00 0.00 62 1020.0
20260502044531 40 86 7.0 10.0 0.00 0.00 0.00 62 1020.1
20260502044013 40 97 6.0 10.0 0.00 0.00 0.00 61 1020.0
20260502043515 41 98 6.0 12.0 0.00 0.00 0.00 60 1019.9
20260502043039 41 94 7.0 13.0 0.00 0.00 0.00 59 1020.1
20260502042513 42 89 9.0 13.0 0.00 0.00 0.00 57 1020.1
20260502042016 42 105 10.0 13.0 0.00 0.00 0.00 57 1020.1
20260502041534 43 96 9.0 13.0 0.00 0.00 0.00 57 1020.1
20260502041013 43 101 10.0 13.0 0.00 0.00 0.00 56 1020.0
20260502040515 43 102 9.0 12.0 0.00 0.00 0.00 57 1019.9
20260502040032 43 91 9.0 13.0 0.00 0.00 0.00 56 1019.8
20260502035516 43 94 8.0 14.0 0.00 0.00 0.00 56 1019.9
20260502035014 44 107 10.0 16.0 0.00 0.00 0.00 55 1019.9
20260502034533 44 102 10.0 16.0 0.00 0.00 0.00 54 1019.7
20260502034014 44 111 9.0 13.0 0.00 0.00 0.00 54 1019.7
20260502033528 44 88 8.0 12.0 0.00 0.00 0.00 54 1019.7
20260502033034 44 96 9.0 12.0 0.00 0.00 0.00 54 1019.6
20260502032513 45 93 9.0 12.0 0.00 0.00 0.00 53 1019.6
20260502032015 45 96 9.0 11.0 0.00 0.00 0.00 53 1019.6
20260502031533 45 95 8.0 13.0 0.00 0.00 0.00 53 1019.6
20260502031014 45 86 9.0 13.0 0.00 0.00 0.00 52 1019.4
20260502030514 45 86 10.0 13.0 0.00 0.00 0.00 52 1019.2
20260502030032 45 80 8.0 12.0 0.00 0.00 0.00 53 1019.1
20260502025513 45 89 8.0 13.0 0.00 0.00 0.00 52 1019.2
20260502025013 45 81 9.0 13.0 0.00 0.00 0.00 52 1019.0
20260502024533 45 88 9.0 13.0 0.00 0.00 0.00 51 1018.8
20260502024015 45 79 8.0 12.0 0.00 0.00 0.00 51 1018.8
20260502023515 46 88 8.0 12.0 0.00 0.00 0.00 50 1018.7
20260502023034 46 86 8.0 12.0 0.00 0.00 0.00 50 1018.6
20260502022513 46 81 9.0 13.0 0.00 0.00 0.00 49 1018.5
20260502022015 47 89 9.0 13.0 0.00 0.00 0.00 47 1018.4
20260502021532 48 89 9.0 12.0 0.00 0.00 0.00 46 1018.4
20260502021013 49 68 5.0 7.0 0.00 0.00 0.00 43 1018.3
20260502020513 50 87 3.0 8.0 0.00 0.00 0.00 41 1018.1
20260502020034 51 99 5.0 8.0 0.00 0.00 0.00 38 1018.1
20260502015517 52 98 5.0 8.0 0.00 0.00 0.00 39 1018.0
20260502015015 52 132 6.0 8.0 0.00 0.00 0.00 38 1017.9
20260502014532 52 137 5.0 8.0 0.00 0.00 0.00 39 1017.9
20260502014012 52 114 3.0 5.0 0.00 0.00 0.00 42 1017.9
20260502013512 52 101 2.0 3.0 0.00 0.00 0.00 40 1017.9
20260502013031 53 111 1.0 3.0 0.00 0.00 0.00 40 1017.8
20260502012513 53 100 1.0 5.0 0.00 0.00 0.00 38 1017.8
20260502012018 53 108 3.0 5.0 0.00 0.00 0.00 35 1017.7
20260502011533 53 124 2.0 6.0 0.00 0.00 0.00 33 1017.7
20260502011013 54 72 0.0 6.0 0.00 0.00 0.00 33 1017.5
20260502010514 54 55 2.0 6.0 0.00 0.00 0.00 31 1017.5
20260502010032 54 339 4.0 11.0 0.00 0.00 0.00 29 1017.5
20260502005511 54 288 3.0 11.0 0.00 0.00 0.00 30 1017.5
20260502005013 54 0 2.0 6.0 0.00 0.00 0.00 30 1017.4
20260502004539 55 14 0.0 4.0 0.00 0.00 0.00 32 1017.3
20260502004014 55 0 1.0 4.0 0.00 0.00 0.00 32 1017.4
20260502003511 55 74 2.0 7.0 0.00 0.00 0.00 33 1017.2
20260502003029 55 23 2.0 7.0 0.00 0.00 0.00 30 1017.1
20260502002512 56 61 3.0 8.0 0.00 0.00 0.00 29 1017.0
20260502002013 57 45 4.0 8.0 0.00 0.00 0.00 29 1017.0
20260502001532 56 70 1.0 13.0 0.00 0.00 0.00 29 1017.0
20260502001013 56 77 7.0 13.0 0.00 0.00 0.00 28 1017.0
20260502000515 57 98 7.0 13.0 0.00 0.00 0.00 28 1016.8
20260502000035 58 99 5.0 7.0 0.00 0.00 0.00 30 1016.8
20260501235515 59 127 4.0 7.0 0.00 0.00 0.00 32 1016.8
20260501235013 59 94 2.0 6.0 0.00 0.00 0.00 29 1016.8
20260501234532 59 96 0.0 7.0 0.00 0.00 0.00 30 1016.8
20260501234013 58 0 1.0 9.0 0.00 0.00 0.00 32 1016.6
20260501233520 57 237 3.0 9.0 0.00 0.00 0.00 31 1016.8
20260501233031 57 134 6.0 9.0 0.00 0.00 0.00 32 1016.8
20260501232512 57 150 6.0 12.0 0.00 0.00 0.00 34 1017.0
20260501232016 56 85 3.0 12.0 0.00 0.00 0.00 34 1016.9
20260501231532 56 166 6.0 12.0 0.00 0.00 0.00 34 1017.0
20260501231013 55 135 7.0 17.0 0.00 0.00 0.00 37 1016.9
20260501230515 54 75 7.0 17.0 0.00 0.00 0.00 38 1017.1
20260501230031 54 106 10.0 17.0 0.00 0.00 0.00 41 1017.0
20260501225517 53 134 10.0 18.0 0.00 0.00 0.00 43 1017.0
20260501225018 52 101 12.0 21.0 0.00 0.00 0.00 43 1016.8
20260501224532 52 103 14.0 21.0 0.00 0.00 0.00 42 1016.8
20260501224012 52 88 15.0 20.0 0.00 0.00 0.00 43 1016.6
20260501223515 53 118 4.0 9.0 0.00 0.00 0.00 35 1016.8
20260501223029 53 121 6.0 14.0 0.00 0.00 0.00 34 1016.9
20260501222516 52 117 4.0 14.0 0.00 0.00 0.00 35 1016.9
20260501222016 52 150 9.0 21.0 0.00 0.00 0.00 39 1017.0
20260501221535 52 136 10.0 21.0 0.00 0.00 0.00 39 1017.1
20260501221014 52 140 14.0 23.0 0.00 0.00 0.00 37 1017.0
20260501220514 53 97 16.0 23.0 0.00 0.00 0.00 40 1017.1
20260501220037 55 114 15.0 22.0 0.00 0.00 0.00 38 1017.0
20260501215513 54 99 15.0 22.0 0.00 0.00 0.00 32 1017.0
20260501215014 55 108 5.0 12.0 0.00 0.00 0.00 32 1017.1
20260501214531 54 158 2.0 12.0 0.00 0.00 0.00 30 1017.0
20260501214012 54 169 5.0 12.0 0.00 0.00 0.00 30 1017.0
20260501213512 54 141 4.0 10.0 0.00 0.00 0.00 31 1017.1
20260501213036 54 84 5.0 10.0 0.00 0.00 0.00 33 1017.2
20260501212514 54 111 2.0 25.0 0.00 0.00 0.00 33 1017.0
20260501212013 53 121 12.0 25.0 0.00 0.00 0.00 33 1017.1
20260501211533 54 108 12.0 25.0 0.00 0.00 0.00 36 1017.0
20260501211014 54 122 1.0 16.0 0.00 0.00 0.00 33 1017.2
20260501210515 54 105 9.0 16.0 0.00 0.00 0.00 33 1017.4
20260501210033 53 62 5.0 17.0 0.00 0.00 0.00 34 1017.2
20260501205514 54 63 3.0 22.0 0.00 0.00 0.00 33 1017.4
20260501205014 53 309 11.0 27.0 0.00 0.00 0.00 34 1017.4
20260501204546 53 11 8.0 27.0 0.00 0.00 0.00 35 1017.3
20260501204014 54 340 17.0 27.0 0.00 0.00 0.00 33 1017.4
20260501203520 55 326 9.0 13.0 0.00 0.00 0.00 30 1017.0
20260501203031 56 271 10.0 14.0 0.00 0.00 0.00 30 1017.1
20260501202514 55 269 5.0 14.0 0.00 0.00 0.00 31 1017.0
20260501202017 56 309 5.0 14.0 0.00 0.00 0.00 30 1017.0
20260501201531 55 304 11.0 19.0 0.00 0.00 0.00 31 1017.0
20260501201013 55 304 13.0 19.0 0.00 0.00 0.00 32 1017.1
20260501200515 55 309 4.0 10.0 0.00 0.00 0.00 30 1017.0
20260501200034 55 334 5.0 13.0 0.00 0.00 0.00 32 1017.0
20260501195513 55 277 5.0 13.0 0.00 0.00 0.00 31 1017.1
20260501195013 56 286 3.0 12.0 0.00 0.00 0.00 33 1017.1
20260501194532 55 4 3.0 12.0 0.00 0.00 0.00 32 1017.2
20260501194010 55 332 6.0 17.0 0.00 0.00 0.00 31 1017.1
20260501193514 56 316 10.0 17.0 0.00 0.00 0.00 33 1017.2
20260501193030 57 301 10.0 16.0 0.00 0.00 0.00 35 1017.2
20260501192514 55 184 4.0 18.0 0.00 0.00 0.00 33 1017.3
20260501192011 55 274 12.0 18.0 0.00 0.00 0.00 35 1017.3
20260501191539 56 264 8.0 16.0 0.00 0.00 0.00 34 1017.3
20260501191012 56 282 9.0 16.0 0.00 0.00 0.00 35 1017.3
20260501190514 55 300 7.0 16.0 0.00 0.00 0.00 38 1017.3
20260501190034 56 277 10.0 15.0 0.00 0.00 0.00 35 1017.4
20260501185514 55 276 7.0 14.0 0.00 0.00 0.00 35 1017.4
20260501185013 56 271 7.0 14.0 0.00 0.00 0.00 36 1017.5
20260501184542 55 32 6.0 14.0 0.00 0.00 0.00 36 1017.5
20260501184013 55 251 7.0 21.0 0.00 0.00 0.00 38 1017.6
20260501183517 55 269 5.0 21.0 0.00 0.00 0.00 37 1017.6
20260501183036 55 269 6.0 16.0 0.00 0.00 0.00 39 1017.7
20260501182512 54 229 2.0 14.0 0.00 0.00 0.00 37 1017.7
20260501182016 54 278 8.0 14.0 0.00 0.00 0.00 38 1017.9
20260501181530 53 271 7.0 16.0 0.00 0.00 0.00 37 1017.9